Orange, MA

4:03 AM EST on February 14, 2016 (GMT -0500)
Orange Municipal

Weather History for KORE - January, 2015

Change the Weather History Date:

Wednesday, January 14, 2015

  Actual Average (KEEN) Record (KEEN)
Temperature  
Mean Temperature 6 °F -  
Max Temperature 18 °F 31 °F - (-1)
Min Temperature -7 °F 9 °F - (-1)
Degree Days  
Heating Degree Days 60    
Moisture  
Dew Point 2 °F    
Average Humidity 78    
Maximum Humidity 92    
Minimum Humidity 71    
Precipitation  
Precipitation 0.00 in - - ()
Sea Level Pressure  
Sea Level Pressure 30.44 in    
Wind  
Wind Speed 1 mph (NNW)    
Max Wind Speed 5 mph    
Max Gust Speed -    
Visibility 8 miles    
Events Snow    
Averages and records for this station are not official NWS values.
T = Trace of Precipitation, MM = Missing Value Source: NWS Daily Summary

Daily Weather History Graph

Daily Weather History Graph

Search for Another Location

Airport or City:

Trip Planner

Search our weather history database for the weather conditions in past years. The results will help you decide how hot, cold, wet, or windy it might be!

Date:

Astronomy

Jan. 14, 2015 Rise Set
Actual Time 7:16 AM EST 4:39 PM EST
Civil Twilight 6:45 AM EST 5:11 PM EST
Nautical Twilight 6:10 AM EST 5:45 PM EST
Astronomical Twilight 5:36 AM EST 6:19 PM EST
Moon 1:03 AM EST 11:55 AM EST
Length of Visible Light 10h 25m
Length of Day
9h 22m
Last Quarter, 37% of the Moon is Illuminated
Jan 14
Last Quarter
Jan 20
New
Jan 26
First Quarter
Feb 3
Full
Feb 11
Last Quarter

Hourly Weather History & Observations

Time (EST) Temp. Windchill Dew Point Humidity Pressure Visibility Wind Dir Wind Speed Gust Speed Precip Events Conditions
12:52 AM -5.1 °F - -9.9 °F 80% 30.65 in 8.0 mi Calm Calm - N/A   Clear
1:52 AM -6.0 °F - -11.9 °F 75% 30.64 in 8.0 mi Calm Calm - N/A   Clear
2:52 AM -7.1 °F - -11.9 °F 79% 30.63 in 9.0 mi Calm Calm - N/A   Clear
3:52 AM -7.1 °F - -11.9 °F 79% 30.61 in 10.0 mi Calm Calm - N/A   Mostly Cloudy
4:52 AM -6.0 °F - -11.0 °F 79% 30.59 in 10.0 mi Calm Calm - N/A   Mostly Cloudy
5:52 AM -7.1 °F - -11.9 °F 79% 30.59 in 10.0 mi Calm Calm - N/A   Overcast
6:52 AM -2.9 °F - -8.0 °F 79% 30.58 in 8.0 mi Calm Calm - N/A   Overcast
7:52 AM -0.0 °F -7.9 °F -5.1 °F 79% 30.57 in 8.0 mi North 3.5 mph - N/A   Overcast
8:52 AM 1.9 °F -5.6 °F -2.9 °F 80% 30.53 in 4.0 mi NNW 3.5 mph - 0.00 in Snow Light Snow
9:52 AM 6.1 °F -2.8 °F -0.0 °F 76% 30.54 in 4.0 mi NNW 4.6 mph - 0.00 in Snow Light Snow
10:52 AM 9.0 °F - 3.0 °F 77% 30.52 in 3.0 mi Calm Calm - 0.00 in Snow Light Snow
11:02 AM 10.0 °F 3.6 °F 3.0 °F 73% 30.46 in 2.5 mi North 3.5 mph - 0.00 in Snow Light Snow
11:12 AM 10.0 °F 3.6 °F 3.0 °F 73% 30.44 in 3.0 mi North 3.5 mph - 0.00 in Snow Light Snow
11:31 AM 10.9 °F - 3.9 °F 73% 30.42 in 2.5 mi Calm Calm - 0.00 in Snow Light Snow
11:52 AM 12.0 °F - 5.0 °F 73% 30.45 in 4.0 mi Calm Calm - 0.00 in Snow Light Snow
12:52 PM 12.9 °F - 6.1 °F 74% 30.42 in 10.0 mi Calm Calm - 0.00 in   Overcast
1:52 PM 16.0 °F 10.4 °F 8.1 °F 71% 30.40 in 10.0 mi NW 3.5 mph - N/A   Overcast
2:52 PM 17.1 °F - 9.0 °F 71% 30.37 in 10.0 mi Calm Calm - N/A   Overcast
3:52 PM 17.1 °F - 10.0 °F 74% 30.35 in 10.0 mi Calm Calm - N/A   Overcast
4:52 PM 18.0 °F - 10.9 °F 74% 30.34 in 10.0 mi Calm Calm - N/A   Overcast
5:52 PM 18.0 °F - 12.9 °F 81% 30.33 in 10.0 mi Calm Calm - N/A   Overcast
6:52 PM 18.0 °F - 12.9 °F 81% 30.32 in 10.0 mi Calm Calm - N/A   Overcast
7:52 PM 18.0 °F 12.7 °F 12.9 °F 81% 30.31 in 10.0 mi NNW 3.5 mph - N/A   Overcast
8:52 PM 18.0 °F - 12.9 °F 81% 30.28 in 10.0 mi Calm Calm - N/A   Overcast
9:52 PM 14.0 °F 8.2 °F 10.9 °F 88% 30.27 in 10.0 mi NW 3.5 mph - N/A   Overcast
10:42 PM 12.9 °F 5.2 °F 10.0 °F 88% 30.22 in 10.0 mi NW 4.6 mph - N/A   Scattered Clouds
10:52 PM 12.0 °F 4.1 °F 9.0 °F 88% 30.25 in 10.0 mi North 4.6 mph - N/A   Partly Cloudy
11:52 PM 10.0 °F - 8.1 °F 92% 30.22 in 10.0 mi Calm Calm - N/A   Clear